[keps] orb10177.amsat
Ray Hoad
ray.hoad at mypbmail.com
Sat Jun 26 19:26:36 PDT 2010
SB KEPS @ AMSAT $ORB10177.O
Orbital Elements 10177.OSCAR
HR AMSAT ORBITAL ELEMENTS FOR OSCAR SATELLITES
FROM WA5QGD FORT WORTH,TX June 26, 2010
Send Subscribe/unsubscribe to KEPS at http://www.amsat.org/mailman/listinfo/keps
BID: ORB10177.O
TO ALL RADIO AMATEURS BT
Satellite: VO-52
Catalog number: 28650
Epoch time: 10176.64188221
Element set: 536
Inclination: 097.6922 deg
RA of node: 229.7469 deg
Eccentricity: 0.0025887
Arg of perigee: 248.0228 deg
Mean anomaly: 111.8282 deg
Mean motion: 14.81762480 rev/day
Decay rate: 1.01e-06 rev/day^2
Epoch rev: 27794
Checksum: 324
Satellite: FO-29
Catalog number: 24278
Epoch time: 10176.90548086
Element set: 338
Inclination: 098.5142 deg
RA of node: 004.8313 deg
Eccentricity: 0.0351407
Arg of perigee: 101.2054 deg
Mean anomaly: 262.8804 deg
Mean motion: 13.52951551 rev/day
Decay rate: 5.9e-07 rev/day^2
Epoch rev: 68428
Checksum: 304
Satellite: AO-07
Catalog number: 07530
Epoch time: 10177.61978581
Element set: 811
Inclination: 101.3998 deg
RA of node: 193.1193 deg
Eccentricity: 0.0011577
Arg of perigee: 256.3809 deg
Mean anomaly: 103.5976 deg
Mean motion: 12.53578630 rev/day
Decay rate: -2.7e-07 rev/day^2
Epoch rev: 62963
Checksum: 323
Satellite: RS-22
Catalog number: 27939
Epoch time: 10177.62783171
Element set: 308
Inclination: 097.8928 deg
RA of node: 042.7139 deg
Eccentricity: 0.0014285
Arg of perigee: 034.0624 deg
Mean anomaly: 326.1484 deg
Mean motion: 14.63428727 rev/day
Decay rate: 8.9e-07 rev/day^2
Epoch rev: 36033
Checksum: 319
Satellite: HO-68
Catalog number: 36122
Epoch time: 10177.67315392
Element set: 432
Inclination: 100.4690 deg
RA of node: 238.0071 deg
Eccentricity: 0.0007171
Arg of perigee: 317.1300 deg
Mean anomaly: 042.9258 deg
Mean motion: 13.16280989 rev/day
Decay rate: -4.5e-07 rev/day^2
Epoch rev: 2546
Checksum: 276
Satellite: SO-67
Catalog number: 35870
Epoch time: 10177.73028628
Element set: 855
Inclination: 097.3315 deg
RA of node: 226.6139 deg
Eccentricity: 0.0004731
Arg of perigee: 072.6482 deg
Mean anomaly: 067.7355 deg
Mean motion: 15.20931343 rev/day
Decay rate: 4.75e-06 rev/day^2
Epoch rev: 4290
Checksum: 312
Satellite: SO-33
Catalog number: 25509
Epoch time: 10177.83496445
Element set: 741
Inclination: 031.4322 deg
RA of node: 093.9523 deg
Eccentricity: 0.0353535
Arg of perigee: 014.2044 deg
Mean anomaly: 346.8248 deg
Mean motion: 14.28311109 rev/day
Decay rate: 2.25e-06 rev/day^2
Epoch rev: 60943
Checksum: 289
/EX
SB KEPS @ AMSAT $ORB10177.D
Orbital Elements 10177.MICROS
HR AMSAT ORBITAL ELEMENTS FOR THE MICROSATS
FROM WA5QGD FORT WORTH,TX June 26, 2010
Send Subscribe/unsubscribe to KEPS at http://www.amsat.org/mailman/listinfo/keps
BID: ORB10177.D
TO ALL RADIO AMATEURS BT
Satellite: AO-51
Catalog number: 28375
Epoch time: 10176.48316237
Element set: 0709
Inclination: 098.0623 deg
RA of node: 169.5063 deg
Eccentricity: 0.0085130
Arg of perigee: 071.8642 deg
Mean anomaly: 289.1796 deg
Mean motion: 14.40688769 rev/day
Decay rate: 1.2e-07 rev/day^2
Epoch rev: 31470
Checksum: 323
Satellite: CP3
Catalog number: 31129
Epoch time: 10176.62130615
Element set: 0611
Inclination: 097.9397 deg
RA of node: 215.7422 deg
Eccentricity: 0.0102215
Arg of perigee: 206.4355 deg
Mean anomaly: 153.1628 deg
Mean motion: 14.52269050 rev/day
Decay rate: -5.6e-07 rev/day^2
Epoch rev: 16908
Checksum: 275
Satellite: UO-11
Catalog number: 14781
Epoch time: 10176.67732049
Element set: 275
Inclination: 098.0557 deg
RA of node: 228.4450 deg
Eccentricity: 0.0008483
Arg of perigee: 205.6021 deg
Mean anomaly: 154.4688 deg
Mean motion: 14.79810835 rev/day
Decay rate: -5.1e-07 rev/day^2
Epoch rev: 41306
Checksum: 302
Satellite: SOHLA-1
Catalog number: 33496
Epoch time: 10176.80849277
Element set: 137
Inclination: 098.0584 deg
RA of node: 285.7717 deg
Eccentricity: 0.0006755
Arg of perigee: 166.9238 deg
Mean anomaly: 193.2158 deg
Mean motion: 14.69499246 rev/day
Decay rate: -9.3e-07 rev/day^2
Epoch rev: 7614
Checksum: 351
Satellite: GO-32
Catalog number: 25397
Epoch time: 10176.81878739
Element set: 0219
Inclination: 098.3113 deg
RA of node: 183.7929 deg
Eccentricity: 0.0000554
Arg of perigee: 179.9762 deg
Mean anomaly: 180.1403 deg
Mean motion: 14.23180351 rev/day
Decay rate: 4.2e-07 rev/day^2
Epoch rev: 62127
Checksum: 308
Satellite: CO-55
Catalog number: 27844
Epoch time: 10176.89848089
Element set: 0877
Inclination: 098.7084 deg
RA of node: 185.7464 deg
Eccentricity: 0.0010175
Arg of perigee: 140.2926 deg
Mean anomaly: 219.8997 deg
Mean motion: 14.20714603 rev/day
Decay rate: 5.3e-07 rev/day^2
Epoch rev: 36232
Checksum: 343
Satellite: IO-26
Catalog number: 22826
Epoch time: 10177.24753950
Element set: 299
Inclination: 098.4787 deg
RA of node: 125.5605 deg
Eccentricity: 0.0008045
Arg of perigee: 235.3441 deg
Mean anomaly: 124.6990 deg
Mean motion: 14.29556998 rev/day
Decay rate: 1.4e-07 rev/day^2
Epoch rev: 87345
Checksum: 337
Satellite: AO-27
Catalog number: 22825
Epoch time: 10177.39370133
Element set: 563
Inclination: 098.4855 deg
RA of node: 125.1060 deg
Eccentricity: 0.0007665
Arg of perigee: 238.4085 deg
Mean anomaly: 121.6355 deg
Mean motion: 14.29300207 rev/day
Decay rate: -8.2e-07 rev/day^2
Epoch rev: 87336
Checksum: 295
Satellite: LO-19
Catalog number: 20442
Epoch time: 10177.40925588
Element set: 840
Inclination: 098.2925 deg
RA of node: 140.7169 deg
Eccentricity: 0.0012649
Arg of perigee: 130.9807 deg
Mean anomaly: 229.2493 deg
Mean motion: 14.32096271 rev/day
Decay rate: -3.0e-08 rev/day^2
Epoch rev: 6687
Checksum: 313
Satellite: CO-57
Catalog number: 27848
Epoch time: 10177.49284162
Element set: 827
Inclination: 098.7128 deg
RA of node: 185.4271 deg
Eccentricity: 0.0010001
Arg of perigee: 143.7407 deg
Mean anomaly: 216.4482 deg
Mean motion: 14.20506495 rev/day
Decay rate: 3.8e-07 rev/day^2
Epoch rev: 36236
Checksum: 306
Satellite: NO-44
Catalog number: 26931
Epoch time: 10177.50881681
Element set: 492
Inclination: 067.0506 deg
RA of node: 179.9572 deg
Eccentricity: 0.0005424
Arg of perigee: 263.6012 deg
Mean anomaly: 096.4482 deg
Mean motion: 14.29602400 rev/day
Decay rate: 2.23e-06 rev/day^2
Epoch rev: 45608
Checksum: 297
Satellite: SO-50
Catalog number: 27607
Epoch time: 10177.52275814
Element set: 208
Inclination: 064.5594 deg
RA of node: 328.1610 deg
Eccentricity: 0.0035268
Arg of perigee: 071.9132 deg
Mean anomaly: 288.5780 deg
Mean motion: 14.71550032 rev/day
Decay rate: -1.7e-07 rev/day^2
Epoch rev: 40375
Checksum: 293
Satellite: CO-65
Catalog number: 32785
Epoch time: 10177.68670609
Element set: 717
Inclination: 097.8972 deg
RA of node: 242.4829 deg
Eccentricity: 0.0013796
Arg of perigee: 253.1340 deg
Mean anomaly: 106.8350 deg
Mean motion: 14.81671067 rev/day
Decay rate: 3.83e-06 rev/day^2
Epoch rev: 11689
Checksum: 339
Satellite: KKS-1
Catalog number: 33493
Epoch time: 10177.71306139
Element set: 608
Inclination: 098.0867 deg
RA of node: 297.2868 deg
Eccentricity: 0.0021344
Arg of perigee: 109.2500 deg
Mean anomaly: 251.1033 deg
Mean motion: 14.81017440 rev/day
Decay rate: 3.07e-06 rev/day^2
Epoch rev: 7689
Checksum: 289
Satellite: GENESAT1
Catalog number: 29655
Epoch time: 10177.77853357
Element set: 130
Inclination: 040.0181 deg
RA of node: 325.9564 deg
Eccentricity: 0.0010543
Arg of perigee: 020.7654 deg
Mean anomaly: 339.3591 deg
Mean motion: 15.96649382 rev/day
Decay rate: 1.43626e-03 rev/day^2
Epoch rev: 20152
Checksum: 302
Satellite: AO-16
Catalog number: 20439
Epoch time: 10177.83228967
Element set: 929
Inclination: 098.3320 deg
RA of node: 135.3587 deg
Eccentricity: 0.0011528
Arg of perigee: 133.9610 deg
Mean anomaly: 226.2529 deg
Mean motion: 14.31865316 rev/day
Decay rate: 2.2e-07 rev/day^2
Epoch rev: 6676
Checksum: 309
/EX
SB KEPS @ AMSAT $ORB10177.W
Orbital Elements 10177.WEATHER
HR AMSAT ORBITAL ELEMENTS FOR WEATHER SATELLITES
FROM WA5QGD FORT WORTH,TX June 26, 2010
Send Subscribe/unsubscribe to KEPS at http://www.amsat.org/mailman/listinfo/keps
BID: ORB10177.W
TO ALL RADIO AMATEURS BT
Satellite: NOAA-11
Catalog number: 19531
Epoch time: 10176.30178035
Element set: 0123
Inclination: 098.7698 deg
RA of node: 265.1882 deg
Eccentricity: 0.0012082
Arg of perigee: 122.0249 deg
Mean anomaly: 238.2125 deg
Mean motion: 14.14929205 rev/day
Decay rate: 1.34e-06 rev/day^2
Epoch rev: 12228
Checksum: 274
Satellite: FENGYUN1
Catalog number: 25730
Epoch time: 10176.47650484
Element set: 0075
Inclination: 098.7857 deg
RA of node: 141.2161 deg
Eccentricity: 0.0020883
Arg of perigee: 247.1287 deg
Mean anomaly: 112.7679 deg
Mean motion: 14.08184507 rev/day
Decay rate: -4.83e-06 rev/day^2
Epoch rev: 57285
Checksum: 318
Satellite: OKEAN-0
Catalog number: 25860
Epoch time: 10176.56416955
Element set: 0030
Inclination: 097.8316 deg
RA of node: 148.9766 deg
Eccentricity: 0.0001839
Arg of perigee: 070.8276 deg
Mean anomaly: 289.3126 deg
Mean motion: 14.73645702 rev/day
Decay rate: 2.1e-07 rev/day^2
Epoch rev: 58813
Checksum: 315
Satellite: NOAA-10
Catalog number: 16969
Epoch time: 10176.63464985
Element set: 0111
Inclination: 098.6558 deg
RA of node: 205.5228 deg
Eccentricity: 0.0012146
Arg of perigee: 182.9932 deg
Mean anomaly: 177.1193 deg
Mean motion: 14.27419054 rev/day
Decay rate: -1.17e-06 rev/day^2
Epoch rev: 23678
Checksum: 320
Satellite: NOAA-15
Catalog number: 25338
Epoch time: 10176.65098870
Element set: 0424
Inclination: 098.6178 deg
RA of node: 163.4229 deg
Eccentricity: 0.0011569
Arg of perigee: 053.7875 deg
Mean anomaly: 306.4369 deg
Mean motion: 14.24835812 rev/day
Decay rate: 7.1e-07 rev/day^2
Epoch rev: 62995
Checksum: 337
Satellite: NOAA-16
Catalog number: 26536
Epoch time: 10176.65537468
Element set: 0901
Inclination: 099.1697 deg
RA of node: 194.3239 deg
Eccentricity: 0.0009825
Arg of perigee: 317.0139 deg
Mean anomaly: 043.0244 deg
Mean motion: 14.12565811 rev/day
Decay rate: 1.53e-06 rev/day^2
Epoch rev: 50302
Checksum: 298
